BV3BA-13 Weather Reports


Display with metric or nautical units.
time (UTC)temp
F
wind
direction
speed
MPH
gust
MPH
rain 1hr
in
rain 24hr
in
rain mn
in
humidity
%
barometer
mb
20260504235704 66 60 2.0 7.0 0.08 0.43 0.31 96 1011.8
20260504234703 66 70 2.0 7.0 0.10 0.43 0.31 96 1011.7
20260504233703 66 100 3.0 7.0 0.10 0.41 0.30 96 1011.5
20260504232704 65 90 1.0 7.0 0.08 0.39 0.28 96 1011.5
20260504231704 65 50 3.0 7.0 0.06 0.37 0.26 96 1011.5
20260504230704 65 80 2.0 6.0 0.08 0.37 0.26 95 1011.4
20260504225704 66 80 2.0 6.0 0.06 0.35 0.24 96 1011.5
20260504224703 66 110 1.0 6.0 0.10 0.33 0.22 96 1011.4
20260504223704 65 130 2.0 6.0 0.10 0.31 0.20 95 1011.3
20260504222705 65 120 3.0 6.0 0.12 0.31 0.20 95 1011.2
20260504221704 65 120 2.0 6.0 0.14 0.31 0.20 95 1011.2
20260504220704 65 70 3.0 5.0 0.12 0.30 0.18 95 1011.1
20260504215703 65 50 2.0 5.0 0.12 0.30 0.18 95 1011.1
20260504214704 65 90 1.0 5.0 0.06 0.26 0.12 95 1010.9
20260504213703 65 90 1.0 5.0 0.04 0.24 0.10 94 1010.8
20260504212703 65 90 1.0 5.0 0.02 0.22 0.08 94 1010.7
20260504211704 65 90 2.0 5.0 0.02 0.20 0.06 93 1010.6
20260504210703 65 120 1.0 7.0 0.04 0.20 0.06 92 1010.5
20260504205703 65 110 1.0 7.0 0.04 0.20 0.06 93 1010.5
20260504204703 65 130 1.0 7.0 0.04 0.20 0.06 92 1010.5
20260504203704 65 120 1.0 7.0 0.06 0.20 0.06 93 1010.4
20260504202703 65 120 1.0 7.0 0.06 0.20 0.06 91 1010.4
20260504201703 65 130 2.0 7.0 0.04 0.18 0.04 90 1010.2
20260504200704 66 110 2.0 12.0 0.02 0.16 0.02 89 1010.1
20260504195703 66 130 2.0 12.0 0.02 0.16 0.02 88 1010.1
20260504194703 66 120 2.0 12.0 0.02 0.16 0.02 86 1010.0
20260504193704 66 100 4.0 12.0 0.00 0.14 0.00 86 1009.8
20260504192704 66 130 2.0 12.0 0.00 0.14 0.00 86 1009.8
20260504191703 66 70 2.0 12.0 0.00 0.14 0.00 86 1009.9
20260504190703 66 110 3.0 12.0 0.00 0.14 0.00 86 1009.9
20260504185704 65 110 4.0 12.0 0.00 0.14 0.00 86 1009.9
20260504184703 65 100 2.0 12.0 0.00 0.14 0.00 86 1010.0
20260504183703 65 120 3.0 12.0 0.00 0.14 0.00 85 1010.1
20260504182704 65 110 2.0 12.0 0.00 0.14 0.00 85 1010.2
20260504181703 65 130 4.0 12.0 0.00 0.14 0.00 85 1010.2
20260504180703 66 110 4.0 12.0 0.00 0.14 0.00 84 1010.3
20260504175703 65 130 3.0 12.0 0.00 0.14 0.00 83 1010.4
20260504174704 65 110 4.0 12.0 0.00 0.14 0.00 84 1010.4
20260504173706 65 120 4.0 12.0 0.00 0.14 0.00 83 1010.6
20260504172703 65 130 4.0 12.0 0.00 0.14 0.00 83 1010.8
20260504171705 65 130 4.0 12.0 0.00 0.14 0.00 84 1010.9
20260504170703 65 100 4.0 14.0 0.00 0.14 0.00 83 1011.0
20260504150704 64 120 2.0 14.0 0.00 0.14 0.14 83 1012.1
20260504140703 64 60 4.0 17.0 0.00 0.14 0.14 83 1012.6
20260504130703 63 70 6.0 14.0 0.02 0.14 0.14 84 1012.8
20260504110703 63 50 4.0 22.0 0.08 0.10 0.10 82 1012.9
20260504081704 73 50 9.0 28.0 0.00 0.02 0.02 65 1010.8
20260504080703 73 50 9.0 26.0 0.00 0.02 0.02 64 1010.6
20260504050704 78 50 10.0 33.0 0.00 0.02 0.02 50 1011.7
20260504045704 77 40 13.0 33.0 0.00 0.02 0.02 49 1012.0
20260504044704 78 50 9.0 33.0 0.00 0.02 0.02 51 1011.8
20260504043704 77 50 9.0 33.0 0.00 0.02 0.02 53 1012.0
20260504042704 77 60 9.0 33.0 0.00 0.02 0.02 52 1012.1
20260504041703 77 40 11.0 33.0 0.00 0.02 0.02 56 1012.4
20260504040703 76 40 12.0 26.0 0.00 0.02 0.02 53 1012.3
20260504035703 76 50 10.0 26.0 0.00 0.02 0.02 54 1012.7
20260504034704 76 40 11.0 26.0 0.00 0.02 0.02 55 1013.0
20260504033703 75 40 9.0 26.0 0.00 0.02 0.02 57 1012.7
20260504032704 74 40 10.0 26.0 0.00 0.02 0.02 54 1012.9
20260504031704 74 40 10.0 26.0 0.00 0.02 0.02 54 1012.8
20260504030703 73 50 9.0 21.0 0.00 0.02 0.02 56 1013.2
20260504025703 74 40 9.0 21.0 0.00 0.02 0.02 54 1013.2
20260504024703 74 50 11.0 21.0 0.00 0.02 0.02 54 1013.1
20260504023704 74 50 6.0 21.0 0.00 0.02 0.02 53 1013.3
20260504022704 74 60 9.0 21.0 0.00 0.02 0.02 57 1013.3
20260504021703 73 70 6.0 21.0 0.00 0.02 0.02 60 1013.6
20260504020704 71 60 7.0 28.0 0.00 0.02 0.02 67 1013.7
20260504015703 71 60 9.0 28.0 0.00 0.02 0.02 67 1013.7
20260504014703 70 60 6.0 28.0 0.00 0.02 0.02 68 1014.0
20260504013704 70 60 6.0 28.0 0.00 0.02 0.02 70 1014.0
20260504012704 70 60 8.0 28.0 0.00 0.02 0.02 72 1013.8
20260504011703 70 50 7.0 28.0 0.00 0.02 0.02 73 1014.4
20260504010704 70 40 4.0 26.0 0.00 0.02 0.02 76 1014.1
20260504005704 70 30 7.0 26.0 0.00 0.02 0.02 75 1013.7
20260504004704 70 30 9.0 26.0 0.00 0.02 0.02 74 1013.5
20260504003704 70 40 11.0 26.0 0.00 0.02 0.02 74 1013.3
20260504002703 70 40 9.0 26.0 0.00 0.02 0.02 73 1013.1
20260504001703 70 50 8.0 26.0 0.00 0.02 0.02 75 1013.6
20260504000703 70 40 9.0 19.0 0.00 0.02 0.02 76 1013.3